Date,TemperatureHighF,TemperatureAvgF,TemperatureLowF,DewpointHighF,DewpointAvgF,DewpointLowF,HumidityHigh,HumidityAvg,HumidityLow,PressureMaxIn,PressureMinIn,WindSpeedMaxMPH,WindSpeedAvgMPH,GustSpeedMaxMPH,PrecipitationSumIn
2013-2-1,42,29,16,20,10,0,59,46,27,30.54,30.23,12,2,13,0.00
2013-2-2,58,43,29,32,26,19,71,52,33,30.33,30.22,11,1,12,0.00
2013-2-3,56,47,37,30,25,18,65,42,26,30.35,29.96,13,2,14,0.00
2013-2-4,66,55,42,39,33,27,66,44,26,29.99,29.83,12,2,14,0.00
2013-2-5,67,49,31,42,33,27,89,58,25,30.08,29.93,7,1,10,0.00
2013-2-6,65,54,42,49,39,32,75,59,47,30.09,29.92,17,3,18,0.00
2013-2-7,60,51,41,54,47,36,99,85,71,30.19,29.86,14,3,18,0.02
2013-2-8,50,41,33,36,32,28,90,72,48,30.38,30.19,14,2,19,0.01
2013-2-9,44,40,38,42,35,31,100,81,64,30.21,29.78,17,5,18,0.06
2013-2-10,61,51,40,52,34,21,100,58,23,30.09,29.67,24,5,25,0.23
2013-2-11,52,42,32,26,23,20,69,49,29,30.27,30.09,12,1,17,0.00
2013-2-12,42,38,33,38,30,24,100,77,53,30.17,30.00,10,2,12,0.00
2013-2-13,55,42,33,36,32,27,100,73,35,30.11,29.98,14,2,14,0.02
2013-2-14,59,47,35,34,29,23,64,51,35,30.25,30.01,14,2,16,0.00
2013-2-15,45,36,29,30,17,8,74,48,24,30.46,30.25,14,2,17,0.00
2013-2-16,44,35,25,25,14,5,77,45,24,30.46,30.13,13,2,14,0.00
2013-2-17,69,51,35,33,27,18,67,42,22,30.13,29.78,21,4,25,0.00
2013-2-18,61,53,37,50,37,23,73,55,36,30.19,29.65,29,8,31,0.00
2013-2-19,50,39,27,24,21,18,74,50,29,30.41,30.19,12,2,13,0.00
2013-2-20,37,34,31,33,28,18,100,83,47,30.34,30.06,13,3,16,0.15
2013-2-21,35,33,27,35,31,18,100,94,70,30.06,29.73,17,4,19,0.76
2013-2-22,38,29,21,20,17,14,76,62,45,30.22,30.02,17,3,19,0.02
2013-2-23,46,32,20,24,19,15,80,60,36,30.20,29.99,6,1,7,0.00
2013-2-24,58,44,31,39,31,22,75,60,42,30.02,29.79,19,4,19,0.00
2013-2-25,44,38,32,38,35,32,100,88,64,29.86,29.50,21,6,22,0.57
2013-2-26,41,36,32,33,31,28,100,82,66,29.97,29.53,20,5,24,0.30
2013-2-27,47,36,31,30,26,22,85,68,40,30.21,29.97,24,5,26,0.00
2013-2-28,46,37,30,29,26,24,80,66,50,30.28,30.20,16,4,19,0.00